DW9408 Weather Reports


Display with metric or nautical units.
time (UTC)temp
F
wind
direction
speed
MPH
gust
MPH
rain 1hr
in
rain 24hr
in
rain mn
in
humidity
%
barometer
mb
20260902201132 94 244 0.0 3.0 0.00 0.00 0.00 57 1017.4
20260902200627 95 244 0.0 2.0 0.00 0.00 0.00 61 1017.4
20260902200122 95 248 0.0 2.0 0.00 0.00 0.00 56 1017.4
20260902195615 95 259 0.0 1.0 0.00 0.00 0.00 55 1017.5
20260902195109 95 259 0.0 1.0 0.00 0.00 0.00 55 1017.6
20260902194602 95 264 0.0 3.0 0.00 0.00 0.00 55 1017.6
20260902194057 94 264 0.0 3.0 0.00 0.00 0.00 57 1017.6
20260902193551 95 255 0.0 3.0 0.00 0.00 0.00 55 1017.7
20260902193045 95 258 0.0 2.0 0.00 0.00 0.00 55 1017.8
20260902192538 94 258 0.0 0.0 0.00 0.00 0.00 59 1017.8
20260902192033 94 258 0.0 0.0 0.00 0.00 0.00 59 1017.8
20260902191526 94 258 0.0 2.0 0.00 0.00 0.00 58 1017.9
20260902191021 94 259 0.0 3.0 0.00 0.00 0.00 59 1017.9
20260902190514 93 259 0.0 3.0 0.00 0.00 0.00 63 1018.0
20260902190008 94 265 0.0 2.0 0.00 0.00 0.00 59 1018.0
20260902185502 94 267 0.0 3.0 0.00 0.00 0.00 59 1018.0
20260902184956 94 265 0.0 3.0 0.00 0.00 0.00 63 1018.1
20260902184722 94 265 0.0 3.0 0.00 0.00 0.00 58 1018.2
20260902183945 94 265 0.0 6.0 0.00 0.00 0.00 59 1018.2
20260902183438 94 282 0.0 6.0 0.00 0.00 0.00 64 1018.4
20260902182932 93 348 0.0 1.0 0.00 0.00 0.00 58 1018.4
20260902182427 93 348 0.0 2.0 0.00 0.00 0.00 58 1018.5
20260902181921 93 348 0.0 5.0 0.00 0.00 0.00 61 1018.5
20260902181415 93 40 0.0 5.0 0.00 0.00 0.00 62 1018.6
20260902181140 93 249 0.0 1.0 0.00 0.00 0.00 65 1018.6
20260902180402 92 249 0.0 3.0 0.00 0.00 0.00 63 1018.6
20260902175856 93 249 0.0 3.0 0.00 0.00 0.00 67 1018.7
20260902175350 92 217 0.0 1.0 0.00 0.00 0.00 67 1018.7
20260902174845 92 217 0.0 1.0 0.00 0.00 0.00 65 1018.6
20260902174338 92 217 0.0 1.0 0.00 0.00 0.00 66 1018.7
20260902173833 93 217 0.0 0.0 0.00 0.00 0.00 64 1018.8
20260902173557 92 217 0.0 1.0 0.00 0.00 0.00 67 1018.8
20260902172821 92 216 0.0 1.0 0.00 0.00 0.00 64 1018.9
20260902172546 92 240 0.0 1.0 0.00 0.00 0.00 65 1018.9
20260902171809 92 242 0.0 1.0 0.00 0.00 0.00 69 1019.0
20260902171533 91 11 0.0 0.0 0.00 0.00 0.00 69 1019.1
20260902170756 91 11 0.0 2.0 0.00 0.00 0.00 66 1019.1
20260902170251 91 11 0.0 2.0 0.00 0.00 0.00 68 1019.1
20260902165747 91 11 0.0 2.0 0.00 0.00 0.00 69 1019.2
20260902165509 91 17 0.0 2.0 0.00 0.00 0.00 66 1019.2
20260902164735 91 65 0.0 1.0 0.00 0.00 0.00 69 1019.3
20260902164457 90 65 0.0 1.0 0.00 0.00 0.00 70 1019.3
20260902163720 90 300 0.0 3.0 0.00 0.00 0.00 72 1019.3
20260902163449 90 9 0.0 3.0 0.00 0.00 0.00 69 1019.5
20260902162717 90 302 0.0 1.0 0.00 0.00 0.00 69 1019.5
20260902162224 90 355 0.0 2.0 0.00 0.00 0.00 67 1019.8
20260902161717 90 355 0.0 2.0 0.00 0.00 0.00 72 1019.8
20260902161217 90 355 0.0 0.0 0.00 0.00 0.00 69 1019.8
20260902160714 90 355 0.0 1.0 0.00 0.00 0.00 69 1019.9
20260902160215 89 355 0.0 1.0 0.00 0.00 0.00 72 1019.8
20260902155715 89 355 0.0 0.0 0.00 0.00 0.00 71 1019.9
20260902155212 89 355 0.0 0.0 0.00 0.00 0.00 71 1019.9
20260902154714 89 355 0.0 0.0 0.00 0.00 0.00 70 1019.9
20260902154213 89 355 0.0 5.0 0.00 0.00 0.00 70 1020.0
20260902153714 88 355 0.0 5.0 0.00 0.00 0.00 74 1020.0
20260902153212 88 57 0.0 2.0 0.00 0.00 0.00 71 1020.0
20260902152943 88 57 0.0 2.0 0.00 0.00 0.00 73 1020.1
20260902152212 88 57 0.0 1.0 0.00 0.00 0.00 72 1020.0
20260902151713 88 57 0.0 2.0 0.00 0.00 0.00 71 1020.0
20260902151213 87 57 0.0 2.0 0.00 0.00 0.00 74 1019.9
20260902150944 87 57 0.0 2.0 0.00 0.00 0.00 73 1019.9
20260902150212 87 57 0.0 2.0 0.00 0.00 0.00 73 1020.0
20260902145712 87 57 0.0 0.0 0.00 0.00 0.00 76 1020.0
20260902145212 87 57 0.0 0.0 0.00 0.00 0.00 81 1019.9
20260902144713 86 57 0.0 1.0 0.00 0.00 0.00 76 1019.9
20260902143946 85 58 0.0 3.0 0.00 0.00 0.00 76 1019.9
20260902143212 85 58 0.0 3.0 0.00 0.00 0.00 78 1019.9
20260902142713 85 59 0.0 4.0 0.00 0.00 0.00 81 1019.8
20260902142215 84 59 0.0 4.0 0.00 0.00 0.00 80 1019.8
20260902141711 84 59 0.0 2.0 0.00 0.00 0.00 83 1019.8
20260902141214 84 59 0.0 2.0 0.00 0.00 0.00 83 1019.8
20260902140711 83 59 0.0 1.0 0.00 0.00 0.00 84 1019.8
20260902140212 83 59 0.0 1.0 0.00 0.00 0.00 83 1019.6
20260902135711 83 59 0.0 1.0 0.00 0.00 0.00 86 1019.6
20260902135208 82 59 0.0 0.0 0.00 0.00 0.00 89 1019.6
20260902134708 81 59 0.0 0.0 0.00 0.00 0.00 91 1019.8
20260902134203 80 59 0.0 0.0 0.00 0.00 0.00 92 1019.8
20260902133657 80 59 0.0 0.0 0.00 0.00 0.00 94 1019.9
20260902133151 79 59 0.0 0.0 0.00 0.00 0.00 97 1019.9
20260902132645 78 59 0.0 0.0 0.00 0.00 0.00 97 1019.8
20260902132139 77 59 0.0 0.0 0.00 0.00 0.00 98 1019.8
20260902131633 77 59 0.0 0.0 0.00 0.00 0.00 100 1019.8
20260902131359 76 59 0.0 0.0 0.00 0.00 0.00 100 1019.8
20260902130621 76 59 0.0 0.0 0.00 0.00 0.00 100 1019.8
20260902130115 75 59 0.0 0.0 0.00 0.00 0.00 100 1019.8
20260902125609 74 59 0.0 0.0 0.00 0.00 0.00 100 1019.8
20260902125103 74 59 0.0 0.0 0.00 0.00 0.00 100 1019.9
20260902124557 74 59 0.0 0.0 0.00 0.00 0.00 100 1019.8
20260902124051 73 59 0.0 0.0 0.00 0.00 0.00 100 1019.8
20260902123545 72 59 0.0 0.0 0.00 0.00 0.00 100 1019.8
20260902123038 71 59 0.0 0.0 0.00 0.00 0.00 100 1019.8
20260902122532 70 59 0.0 0.0 0.00 0.00 0.00 100 1019.8
20260902122027 70 59 0.0 0.0 0.00 0.00 0.00 100 1019.8
20260902121521 69 59 0.0 0.0 0.00 0.00 0.00 100 1019.9
20260902121015 69 59 0.0 0.0 0.00 0.00 0.00 100 1019.9
20260902120508 69 59 0.0 0.0 0.00 0.00 0.00 100 1019.9
20260902120003 69 59 0.0 0.0 0.00 0.00 0.00 100 1019.9
20260902115457 69 59 0.0 0.0 0.00 0.00 0.00 100 1019.8
20260902114951 69 59 0.0 0.0 0.00 0.00 0.00 100 1019.6
20260902114444 69 59 0.0 0.0 0.00 0.00 0.00 100 1019.6
20260902113938 68 59 0.0 0.0 0.00 0.00 0.00 100 1019.6
20260902113433 69 59 0.0 0.0 0.00 0.00 0.00 100 1019.5
20260902112927 69 59 0.0 0.0 0.00 0.00 0.00 100 1019.5
20260902112421 69 59 0.0 0.0 0.00 0.00 0.00 100 1019.4
20260902111915 69 59 0.0 0.0 0.00 0.00 0.00 100 1019.4
20260902111408 69 59 0.0 0.0 0.00 0.00 0.00 100 1019.4
20260902110903 69 59 0.0 0.0 0.00 0.00 0.00 100 1019.3
20260902110357 69 59 0.0 0.0 0.00 0.00 0.00 100 1019.3
20260902105851 69 59 0.0 0.0 0.00 0.00 0.00 100 1019.2
20260902105616 69 59 0.0 0.0 0.00 0.00 0.00 100 1019.3
20260902104839 69 59 0.0 0.0 0.00 0.00 0.00 100 1019.3
20260902104332 69 59 0.0 0.0 0.00 0.00 0.00 100 1019.3
20260902103826 69 59 0.0 0.0 0.00 0.00 0.00 100 1019.2
20260902103322 69 59 0.0 0.0 0.00 0.00 0.00 100 1019.1
20260902103046 69 59 0.0 0.0 0.00 0.00 0.00 100 1019.1
20260902102308 69 59 0.0 0.0 0.00 0.00 0.00 100 1019.1
20260902102034 69 59 0.0 0.0 0.00 0.00 0.00 100 1019.1
20260902101257 69 59 0.0 0.0 0.00 0.00 0.00 100 1019.1
20260902101024 69 59 0.0 0.0 0.00 0.00 0.00 100 1019.0
20260902100518 69 59 0.0 0.0 0.00 0.00 0.00 100 1018.8
20260902095739 69 59 0.0 0.0 0.00 0.00 0.00 100 1018.7
20260902095233 69 59 0.0 0.0 0.00 0.00 0.00 100 1018.7
20260902094727 69 59 0.0 0.0 0.00 0.00 0.00 100 1018.6
20260902094221 69 59 0.0 0.0 0.00 0.00 0.00 100 1018.6
20260902093715 69 59 0.0 0.0 0.00 0.00 0.00 100 1018.6
20260902093215 70 59 0.0 0.0 0.00 0.00 0.00 100 1018.6
20260902092711 70 59 0.0 0.0 0.00 0.00 0.00 100 1018.6
20260902092210 70 59 0.0 0.0 0.00 0.00 0.00 100 1018.5
20260902091708 70 59 0.0 0.0 0.00 0.00 0.00 100 1018.4
20260902091207 70 59 0.0 0.0 0.00 0.00 0.00 100 1018.4
20260902090935 70 59 0.0 0.0 0.00 0.00 0.00 100 1018.4
20260902090203 70 59 0.0 0.0 0.00 0.00 0.00 100 1018.3
20260902085705 70 59 0.0 0.0 0.00 0.00 0.00 100 1018.2
20260902085202 70 59 0.0 0.0 0.00 0.00 0.00 100 1018.2
20260902084701 70 59 0.0 0.0 0.00 0.00 0.00 100 1018.2
20260902084159 70 59 0.0 0.0 0.00 0.00 0.00 100 1018.2
20260902083658 70 59 0.0 0.0 0.00 0.00 0.00 100 1018.2
20260902083431 70 59 0.0 0.0 0.00 0.00 0.00 100 1018.2
20260902082658 70 59 0.0 0.0 0.00 0.00 0.00 100 1018.1
20260902082434 70 59 0.0 0.0 0.00 0.00 0.00 100 1018.1
20260902081928 70 59 0.0 0.0 0.00 0.00 0.00 100 1018.1
20260902081159 70 59 0.0 0.0 0.00 0.00 0.00 100 1018.2
20260902080659 70 59 0.0 0.0 0.00 0.00 0.00 100 1018.1
20260902080157 70 59 0.0 0.0 0.00 0.00 0.00 100 1018.1
20260902075658 70 59 0.0 0.0 0.00 0.00 0.00 100 1018.1
20260902075158 70 59 0.0 0.0 0.00 0.00 0.00 100 1018.1
20260902074659 70 59 0.0 0.0 0.00 0.00 0.00 100 1018.1
20260902074429 70 59 0.0 0.0 0.00 0.00 0.00 100 1018.1
20260902073659 71 59 0.0 0.0 0.00 0.00 0.00 100 1018.1
20260902073159 71 59 0.0 0.0 0.00 0.00 0.00 100 1018.1
20260902072659 71 59 0.0 0.0 0.00 0.00 0.00 100 1018.1
20260902072157 71 59 0.0 0.0 0.00 0.00 0.00 100 1018.2
20260902071658 71 59 0.0 0.0 0.00 0.00 0.00 100 1018.2
20260902071158 71 59 0.0 0.0 0.00 0.00 0.00 100 1018.2
20260902070658 71 59 0.0 0.0 0.00 0.00 0.00 100 1018.2
20260902070157 71 59 0.0 0.0 0.00 0.00 0.00 100 1018.2
20260902065656 71 59 0.0 0.0 0.00 0.00 0.00 100 1018.1
20260902065154 71 59 0.0 0.0 0.00 0.00 0.00 100 1018.2
20260902064923 71 59 0.0 0.0 0.00 0.00 0.00 100 1018.2
20260902063649 71 59 0.0 0.0 0.00 0.00 0.00 100 1018.3
20260902063144 71 59 0.0 0.0 0.00 0.00 0.00 100 1018.3
20260902062646 71 59 0.0 0.0 0.00 0.00 0.00 100 1018.3
20260902062202 71 59 0.0 0.0 0.00 0.00 0.00 100 1018.4
20260902061414 72 59 0.0 0.0 0.00 0.00 0.00 99 1018.3
20260902060629 72 59 0.0 0.0 0.00 0.00 0.00 99 1018.4
20260902060121 72 59 0.0 0.0 0.00 0.00 0.00 100 1018.4
20260902055619 72 59 0.0 0.0 0.00 0.00 0.00 100 1018.4
20260902055054 72 59 0.0 0.0 0.00 0.00 0.00 100 1018.5
20260902054548 72 59 0.0 0.0 0.00 0.00 0.00 100 1018.4
20260902054042 72 59 0.0 0.0 0.00 0.00 0.00 100 1018.5
20260902053537 72 59 0.0 0.0 0.00 0.00 0.00 100 1018.4
20260902053030 72 59 0.0 0.0 0.00 0.00 0.00 100 1018.5
20260902052524 72 59 0.0 0.0 0.00 0.00 0.00 99 1018.5
20260902052249 72 59 0.0 0.0 0.00 0.00 0.00 99 1018.6
20260902051513 72 59 0.0 0.0 0.00 0.00 0.00 99 1018.6
20260902051006 73 59 0.0 0.0 0.00 0.00 0.00 100 1018.5
20260902045448 73 59 0.0 0.0 0.00 0.00 0.00 99 1018.5
20260902044942 73 59 0.0 0.0 0.00 0.00 0.00 99 1018.4
20260902044437 73 59 0.0 0.0 0.00 0.00 0.00 99 1018.4
20260902043930 73 59 0.0 0.0 0.00 0.00 0.00 100 1018.4
20260902043150 73 59 0.0 0.0 0.00 0.00 0.00 99 1018.2
20260902042412 73 59 0.0 0.0 0.00 0.00 0.00 99 1018.2
20260902041906 73 59 0.0 0.0 0.00 0.00 0.00 99 1018.1
20260902041401 73 59 0.0 0.0 0.00 0.00 0.00 99 1018.1
20260902040855 73 59 0.0 0.0 0.00 0.00 0.00 99 1018.1
20260902040349 73 59 0.0 0.0 0.00 0.00 0.00 99 1018.1
20260902035845 73 59 0.0 0.0 0.00 0.00 0.00 99 1018.1
20260902035339 73 59 0.0 0.0 0.00 0.00 0.00 99 1018.1
20260902034327 74 59 0.0 0.0 0.00 0.00 0.00 99 1018.1
20260902033822 74 59 0.0 0.0 0.00 0.00 0.00 99 1018.0
20260902033327 74 59 0.0 0.0 0.00 0.00 0.00 99 1018.0
20260902032809 74 59 0.0 0.0 0.00 0.00 0.00 99 1018.0
20260902032306 74 59 0.0 0.0 0.00 0.00 0.00 98 1018.0
20260902031757 74 59 0.0 0.0 0.00 0.00 0.00 98 1018.0
20260902031252 75 59 0.0 0.0 0.00 0.00 0.00 98 1018.1
20260902030745 75 59 0.0 0.0 0.00 0.00 0.00 99 1018.1
20260902030239 75 59 0.0 0.0 0.00 0.00 0.00 99 1018.1
20260902025733 75 59 0.0 0.0 0.00 0.00 0.00 99 1018.1
20260902025228 75 59 0.0 0.0 0.00 0.00 0.00 98 1018.0
20260902024722 75 59 0.0 0.0 0.00 0.00 0.00 98 1018.0
20260902024215 75 59 0.0 0.0 0.00 0.00 0.00 97 1018.1
20260902023207 76 59 0.0 0.0 0.00 0.00 0.00 98 1018.0
20260902022703 76 59 0.0 0.0 0.00 0.00 0.00 98 1018.0
20260902022433 76 59 0.0 0.0 0.00 0.00 0.00 98 1018.0
20260902021701 76 59 0.0 0.0 0.00 0.00 0.00 98 1018.0
20260902021200 76 59 0.0 0.0 0.00 0.00 0.00 98 1018.0
20260902020701 76 59 0.0 0.0 0.00 0.00 0.00 98 1018.0
20260902020201 76 59 0.0 0.0 0.00 0.00 0.00 98 1018.0
20260902015701 76 59 0.0 0.0 0.00 0.00 0.00 97 1017.9
20260902015158 76 59 0.0 0.0 0.00 0.00 0.00 97 1017.9
20260902014657 76 59 0.0 0.0 0.00 0.00 0.00 97 1017.9
20260902014153 77 59 0.0 0.0 0.00 0.00 0.00 97 1017.9
20260902013656 77 59 0.0 0.0 0.00 0.00 0.00 97 1017.9
20260902013155 77 59 0.0 0.0 0.00 0.00 0.00 97 1017.8
20260902012650 77 59 0.0 0.0 0.00 0.00 0.00 96 1017.8
20260902012150 77 59 0.0 0.0 0.00 0.00 0.00 96 1017.8
20260902011649 78 59 0.0 0.0 0.00 0.00 0.00 96 1017.7
20260902011147 78 59 0.0 0.0 0.00 0.00 0.00 95 1017.7
20260902010647 78 59 0.0 0.0 0.00 0.00 0.00 95 1017.6
20260902010145 78 59 0.0 0.0 0.00 0.00 0.00 95 1017.6
20260902005642 78 59 0.0 0.0 0.00 0.00 0.00 94 1017.5
20260902005140 79 59 0.0 0.0 0.00 0.00 0.00 94 1017.5
20260902004640 79 59 0.0 0.0 0.00 0.00 0.00 94 1017.5
20260902004139 79 59 0.0 0.0 0.00 0.00 0.00 93 1017.4
20260902003641 80 59 0.0 0.0 0.00 0.00 0.00 93 1017.4
20260902003140 80 59 0.0 0.0 0.00 0.00 0.00 92 1017.4
20260902002139 81 59 0.0 0.0 0.00 0.00 0.00 91 1017.4
20260902001641 81 59 0.0 0.0 0.00 0.00 0.00 90 1017.4
20260902001140 82 59 0.0 0.0 0.00 0.00 0.00 89 1017.3
20260902000641 83 59 0.0 0.0 0.00 0.00 0.00 88 1017.4
20260902000140 83 59 0.0 0.0 0.00 0.00 0.00 87 1017.3
20260901235641 84 59 0.0 0.0 0.00 0.00 0.00 85 1017.4
20260901235139 85 59 0.0 0.0 0.00 0.00 0.00 84 1017.3
20260901234639 85 59 0.0 0.0 0.00 0.00 0.00 84 1017.3
20260901234139 86 59 0.0 0.0 0.00 0.00 0.00 83 1017.3
20260901233912 86 59 0.0 0.0 0.00 0.00 0.00 82 1017.2
20260901233138 87 59 0.0 0.0 0.00 0.00 0.00 81 1017.3
20260901232633 88 59 0.0 0.0 0.00 0.00 0.00 79 1017.3
20260901232126 88 59 0.0 0.0 0.00 0.00 0.00 79 1017.2
20260901231620 89 59 0.0 0.0 0.00 0.00 0.00 76 1017.3
20260901231115 89 59 0.0 0.0 0.00 0.00 0.00 78 1017.4
20260901230615 90 59 0.0 0.0 0.00 0.00 0.00 72 1017.4
20260901230116 91 59 0.0 0.0 0.00 0.00 0.00 71 1017.5
20260901225617 91 59 0.0 0.0 0.00 0.00 0.00 74 1017.5
20260901225115 91 59 0.0 0.0 0.00 0.00 0.00 74 1017.5
20260901224614 91 59 0.0 0.0 0.00 0.00 0.00 71 1017.5
20260901224112 91 59 0.0 0.0 0.00 0.00 0.00 69 1017.5
20260901223611 92 59 0.0 0.0 0.00 0.00 0.00 68 1017.5
20260901223342 92 59 0.0 0.0 0.00 0.00 0.00 68 1017.5
20260901222607 93 59 0.0 0.0 0.00 0.00 0.00 71 1017.4
20260901221605 92 59 0.0 0.0 0.00 0.00 0.00 69 1017.3
20260901221103 92 59 0.0 0.0 0.00 0.00 0.00 71 1017.2
20260901220603 92 59 0.0 0.0 0.00 0.00 0.00 66 1017.3
20260901215832 93 59 0.0 0.0 0.00 0.00 0.00 66 1017.2
20260901215332 93 59 0.0 0.0 0.00 0.00 0.00 66 1017.3
20260901214600 93 59 0.0 0.0 0.00 0.00 0.00 64 1017.3
20260901214331 93 59 0.0 0.0 0.00 0.00 0.00 69 1017.3
20260901213554 94 59 0.0 0.0 0.00 0.00 0.00 59 1017.3
20260901213047 94 59 0.0 0.0 0.00 0.00 0.00 63 1017.4
20260901212814 94 59 0.0 0.0 0.00 0.00 0.00 57 1017.3
20260901212036 94 59 0.0 0.0 0.00 0.00 0.00 59 1017.5
20260901211530 94 59 0.0 0.0 0.00 0.00 0.00 62 1017.4
20260901211023 95 59 0.0 0.0 0.00 0.00 0.00 58 1017.4
20260901210518 94 59 0.0 0.0 0.00 0.00 0.00 56 1017.5
20260901210012 94 59 0.0 0.0 0.00 0.00 0.00 57 1017.5
20260901205736 95 59 0.0 1.0 0.00 0.00 0.00 63 1017.5
20260901205000 95 59 0.0 1.0 0.00 0.00 0.00 55 1017.5
20260901204454 95 59 0.0 0.0 0.00 0.00 0.00 61 1017.6
20260901204218 95 59 0.0 0.0 0.00 0.00 0.00 59 1017.6
20260901203441 94 59 0.0 2.0 0.00 0.00 0.00 57 1017.6
20260901202935 94 59 0.0 2.0 0.00 0.00 0.00 54 1017.6
20260901202700 94 59 0.0 1.0 0.00 0.00 0.00 56 1017.7
20260901201924 94 59 0.0 0.0 0.00 0.00 0.00 60 1017.7